Location: Cedar Hill Fire Department Station 211
(32.5898°N, 96.9659°W)
Time: 21:17:17
(UTC+00:00)

Daily predictions for brighter satellites

Satellite Brightness Start Highest point End
(mag) Time Altitude Azimuth Time Altitude Azimuth Time Altitude Azimuth
BREEZE-M DEB (TANK) 4.4 12:01:29 10° S 12:03:23 24° SE 12:06:09 10° ENE
Cosmos 1378 Rocket 3.9 12:01:37 10° NNW 12:05:35 39° W 12:09:34 10° SSW
Cosmos 1812 1.7 12:07:20 10° S 12:09:43 70° E 12:12:07 10° N
BREEZE-M DEB (TANK) 3.4 12:11:41 26° WSW 12:12:19 30° SW 12:15:28 10° SSE
Cosmos 2084 3.7 12:11:41 19° NW 12:14:11 41° WSW 12:17:58 10° S
GP-B 3.5 12:12:32 10° N 12:16:53 66° E 12:21:12 10° S
Cosmos 1025 Rocket 3.1 12:14:58 10° NNW 12:19:13 54° W 12:23:26 10° S
OAO 3 Rocket 3.9 12:18:12 17° W 12:21:10 36° SSW 12:25:20 10° SE
COSMOS 2455 4.0 12:18:10 16° W 12:21:13 22° NW 12:25:51 10° N
NOSS 3-1 (C) 3.9 12:20:29 16° W 12:22:53 24° NW 12:27:01 10° N
Cosmos 990 Rocket 4.1 12:17:56 10° SSW 12:22:59 50° WNW 12:28:05 10° N
SL-4 R/B 4.0 12:21:38 10° NNW 12:24:23 20° NE 12:27:12 10° E
CZ-4 R/B 4.4 12:20:10 10° N 12:24:44 38° WNW 12:29:16 10° SW
IGS 5A 3.3 12:21:19 10° N 12:25:14 63° WNW 12:29:09 10° SSW
Cosmos 1605 Rocket 4.3 12:19:18 10° SSW 12:25:20 44° W 12:31:24 10° N
NOSS 3-1 (A) 2.7 12:24:04 10° SW 12:28:24 63° WNW 12:33:23 10° NNE
Cosmos 2263 Rocket 2.2 12:22:44 10° NNW 12:28:25 82° WSW 12:34:01 10° SSE
Cosmos 1300 Rocket 3.6 12:26:17 10° SSW 12:30:35 56° W 12:34:55 10° N
USA 215 4.1 12:26:45 10° ESE 12:33:01 50° NE 12:39:19 10° NNW
Cosmos 2369 4.0 12:27:52 10° SW 12:33:17 45° WNW 12:38:41 10° N
SMAP 3.5 12:32:39 10° NNE 12:37:18 68° E 12:41:54 10° S
COSMO-SKYMED 1 2.9 12:36:57 10° S 12:40:49 40° W 12:44:41 10° NNW
Cosmos 2082 4.4 12:35:18 10° NNW 12:40:55 60° ENE 12:46:29 10° SSE
SL-16 R/B 2.4 12:38:05 10° SSW 12:43:44 81° ESE 12:49:25 10° NNE
Cosmos 1459 Rocket 4.1 12:40:54 10° S 12:46:55 83° E 12:53:00 10° N
Cosmos 2333 Rocket 2.7 12:45:08 10° S 12:50:51 71° ESE 12:56:35 10° NNE
H-2A ROCKET BODY 3.2 12:51:26 10° W 13:06:38 65° S 13:10:49 10° ESE
